Location: Ocean City
(38.3360°N, 75.0850°W)
Time: 04:52:10
(UTC-05:00)

Explorer 11/Cluster Stage 4 - Pass Details

Date: 19 November 2019
Orbit: 467 x 1259 km, 28.8° (Epoch: 08 December)

Event Time Altitude Azimuth Distance (km) Brightness Sun altitude
Rises 18:09:13 0° 206° (SSW) 2,937 10.1 -16.4°
Reaches altitude 10° 18:12:45 10° 177° (S) 2,202 9.0 -17.1°
Maximum altitude 18:15:02 13° 151° (SSE) 2,122 8.6 -17.6°
Enters shadow 18:16:37 12° 134° (SE) 2,286 8.6 -17.9°
Drops below altitude 10° 18:17:31 10° 125° (SE) 2,444 - -18.0°
Sets 18:21:54 0° 100° (E) 3,601 - -18.9°
